Home > Weather > Hopkinsville > Past weeks

Flag for USA Past Weather in Hopkinsville, Kentucky, USA — Yesterday and Last 2 Weeks

Now
86 °F

Sunny.


Feels Like: 90 °F
Forecast: 68 / 88 °F
Wind: 6 mph from North

Location: Fort Campbell U. S. Army Airfield

Current Time: Jun 28, 2016 at 12:06:10 PM

Latest Report: Jun 28, 2016 at 10:58 AM


Visibility: 10 mi

Pressure: 30.06 "Hg

Humidity: 57%

Dew Point: 69 °F

Location of HopkinsvilleLocation

Past Weather in Hopkinsville — Graph

°F

Hopkinsville Temperature Yesterday

Maximum temperature yesterday: 83 °F (at 8:55 AM)
Minimum temperature yesterday: 72 °F (at 11:58 PM)
Average temperature yesterday: 76 °F

High & Low Weather Summary for the Past Weeks

 TemperatureHumidityPressure
High94 °F (Jun 16, 3:58 PM)100% (Jun 15, 3:58 PM)30.30 "Hg (Jun 15, 3:58 PM)
Low67 °F (Jun 18, 4:58 AM)33% (Jun 24, 4:58 PM)29.80 "Hg (Jun 16, 6:58 PM)
Average81 °F74%30.01 "Hg
* Reported Jun 13 10:58 AM — Jun 28 10:58 AM, Hopkinsville, Weather by CustomWeather, © 2016

Note: Actual official high and low records may vary slightly from our data, if they occured in-between our weather recording intervals... More about our weather records

Advertising

Hopkinsville Weather History for the Previous 24 Hours

Scroll right to see more
 ConditionsComfort  
Time TempWeatherWind HumidityBarometerVisibility
10:58 AM
Tue, Jun 28
86 °FSunny.6 mph57%30.06 "Hg10 mi
9:58 AM83 °FSunny.3 mph63%30.07 "Hg10 mi
8:58 AM81 °FSunny.5 mph70%30.07 "Hg10 mi
7:58 AM76 °FSunny.3 mph78%30.07 "Hg10 mi
6:58 AM72 °FSunny.No wind93%30.05 "Hg10 mi
5:58 AM69 °FSunny.No wind99%30.05 "Hg10 mi
5:01 AM70 °FClear.No wind94%30.05 "Hg9 mi
4:58 AM70 °FClear.No wind99%30.04 "Hg9 mi
3:58 AM71 °FClear.5 mph100%30.03 "Hg10 mi
2:58 AM71 °FClear.2 mph100%30.03 "Hg8 mi
1:58 AM70 °FClear.No wind97%30.04 "Hg10 mi
12:58 AM73 °FClear.No wind96%30.05 "Hg10 mi
11:58 PM
Mon, Jun 27
72 °FClear.No wind97%30.06 "Hg10 mi
10:58 PM73 °FClear.No wind98%30.07 "Hg9 mi
9:58 PM74 °FPassing clouds.2 mph93%30.07 "Hg10 mi
8:58 PM75 °FPassing clouds.5 mph92%30.06 "Hg10 mi
7:58 PM76 °FSunny.3 mph90%30.05 "Hg10 mi
6:58 PM77 °FSunny.No wind87%30.06 "Hg10 mi
5:58 PM77 °FPassing clouds.No wind82%30.04 "Hg10 mi
4:58 PM77 °FBroken clouds.No wind84%30.07 "Hg10 mi
4:04 PM75 °FMostly cloudy.1 mph89%30.06 "Hg10 mi
3:58 PM76 °FMostly cloudy.No wind88%30.06 "Hg10 mi
2:58 PM75 °FPassing clouds.2 mph90%30.03 "Hg10 mi
1:58 PM73 °FSunny.2 mph95%30.06 "Hg10 mi
12:58 PM73 °FThundershowers. Fog.7 mph95%30.07 "Hg6 mi
Weather by CustomWeather, © 2016

See weather overviewHow to use our weather pages